#timestamp,LO_Frequency,Hit 
1503673215.1,286046996.5,N
1503673216.0,286046996.5,N
1503673235.8,286046995.0,N
1503673255.6,286046996.9,N
1503673275.5,286046999.5,N
1503673295.3,286046997.5,N
1503673315.1,286046999.0,N
1503673335.9,286046999.6,N
1503673355.7,286046997.3,N
1503673375.5,286046997.1,N
1503673395.4,286046998.8,N
1503673415.2,286046999.5,N
1503673435.0,286046999.5,N
1503673435.9,286046999.5,N
1503673455.8,286046996.5,N
1503673475.6,286046999.3,N
1503673495.4,286047002.4,N
1503673515.3,286047002.8,N
1503673535.1,286047000.7,N
1503673536.0,286047000.7,N
1503673555.8,286047001.2,N
1503673575.7,286046997.3,N
1503673595.5,286046996.9,N
1503673615.3,286046997.4,N
1503673635.1,286046999.0,N
1503673655.9,286046999.3,N
1503673675.7,286046996.7,N
1503673695.5,286046999.1,N
1503673715.4,286046995.0,N
1503673735.2,286046997.4,N
1503673755.0,286046995.3,N
1503673755.9,286046995.3,N
1503673775.8,286046996.3,N
1503673795.6,286046993.9,P
1503673815.4,286046991.7,P
1503673835.3,286046993.9,N
1503673855.1,286046994.6,N
1503673875.8,286046994.4,N
1503673895.7,286046989.6,P
1503673915.5,286046993.6,N
1503673935.3,286046993.8,N
1503673955.2,286046994.2,P
1503673975.0,286047002.4,P
1503673975.9,286047002.4,N
1503673995.8,286047002.1,N
1503674015.6,286047003.9,N
1503674035.4,286047004.9,N
1503674055.2,286047007.6,N
1503674075.1,286047006.2,N
1503674076.0,286047006.2,N
1503674095.8,286047007.9,N
1503674115.6,286047009.2,N
1503674135.5,286047008.8,N
1503674155.3,286047011.3,N
1503674175.1,286047014.7,N
1503674195.9,286047012.5,N
1503674215.7,286047013.2,N
1503674235.5,286047012.9,N
1503674255.4,286047011.1,N
1503674275.2,286047011.3,N
1503674295.0,286047011.0,N
1503674295.9,286047011.0,N
1503674315.8,286047012.3,N
1503674335.6,286047012.2,N
1503674355.4,286047013.9,N
1503674375.2,286047012.7,N
1503674395.1,286047015.5,N
1503674396.0,286047015.5,N
1503674415.8,286047013.0,N
1503674435.7,286047017.2,P
1503674455.5,286047004.8,N
1503674475.3,286047006.0,N
1503674495.1,286047003.5,N
1503674515.9,286047001.5,N
1503674535.7,286047002.3,N
1503674555.5,286047004.4,N
1503674575.4,286047004.0,N
1503674595.2,286047005.0,N
1503674615.0,286047004.8,N
1503674615.9,286047004.8,N
1503674635.8,286047004.6,N
1503674655.6,286047006.6,N
1503674675.4,286047010.1,N
1503674695.3,286047011.4,P
1503674715.1,286047006.7,N
1503674716.0,286047006.7,N
1503674735.8,286047012.2,P
1503674755.7,286047005.9,N
1503674775.5,286047005.8,N
1503674795.3,286047008.1,P
1503674815.2,286047002.4,P
1503674835.0,286047001.7,N
1503674835.9,286047001.7,N
1503674855.7,286047007.0,N
1503674875.6,286047006.9,N
1503674895.4,286047008.5,P
1503674915.3,286047003.5,N
1503674935.1,286047003.5,N
1503674936.0,286047003.5,N
1503674955.8,286047002.1,N
1503674975.6,286047002.6,N
1503674995.5,286047003.9,N
1503675015.3,286047003.8,N
1503675035.1,286047004.2,N
1503675055.9,286047003.6,N
1503675075.7,286047007.3,P
1503675095.5,286047004.6,N
1503675115.4,286047008.9,P
1503675135.2,286047007.2,P
1503675155.0,286047002.7,P
1503675156.0,286047002.7,N
1503675175.8,286047002.3,N
1503675195.6,286047000.6,N
1503675215.4,286047002.2,N
1503675235.3,286047001.6,N
1503675255.1,286046999.8,N
1503675275.8,286047001.5,N
1503675295.7,286046996.6,N
1503675315.5,286046990.9,P
1503675335.3,286046987.0,N
1503675355.2,286046986.3,N
1503675375.9,286046985.6,N
1503675395.7,286046986.6,N
1503675415.6,286046983.8,N
1503675435.4,286046980.7,P
1503675455.2,286046993.0,N
1503675475.1,286046990.6,N
1503675476.0,286046990.6,N
1503675495.8,286046988.5,N
1503675515.6,286046989.1,N
1503675535.5,286046988.2,P
1503675555.3,286047000.5,N
1503675575.1,286046993.3,N
1503675595.9,286046994.3,N
1503675615.7,286046995.3,N
1503675635.5,286046993.3,N
1503675655.4,286046992.2,N
1503675675.2,286046990.9,N
1503675695.0,286046992.2,N
1503675695.9,286046992.2,N
1503675715.8,286046995.1,N
1503675735.6,286046995.1,N
1503675755.4,286046995.0,N
1503675775.3,286046997.1,N
1503675795.1,286046993.9,N
1503675796.0,286046993.9,N
1503675815.8,286046990.3,P
1503675835.7,286046995.6,N
1503675855.5,286046997.6,N
1503675875.3,286046995.4,N
1503675895.2,286046996.1,N
1503675915.9,286046996.1,N
1503675935.7,286046995.3,N
1503675955.6,286046996.5,N
1503675975.4,286046998.3,N
1503675995.2,286046999.8,N
1503676015.0,286047002.4,N
1503676016.0,286047002.4,N
1503676035.8,286047003.9,N
1503676055.6,286047003.6,N
1503676075.4,286047005.6,N
1503676095.3,286047005.4,N
1503676115.1,286047005.8,N
1503676135.8,286047001.8,N
1503676155.7,286047000.0,N
1503676175.5,286046998.3,N
1503676195.3,286047000.9,N
1503676215.2,286047000.0,N
1503676235.9,286047001.1,N
1503676255.7,286046999.8,N
1503676275.6,286047002.7,N
1503676295.4,286047003.2,N
1503676315.2,286047002.9,N
1503676335.0,286047003.1,N
1503676335.9,286047003.1,N
1503676355.8,286047003.8,N
1503676375.6,286047004.1,N
1503676395.4,286047004.4,N
1503676415.3,286046999.7,N
1503676435.1,286047001.6,N
1503676455.8,286047004.2,N
1503676475.7,286047002.3,N
1503676495.5,286047004.4,N
1503676515.3,286047004.5,N
1503676535.2,286047008.1,P
1503676555.9,286047004.7,N
1503676575.7,286047007.0,N
1503676595.6,286047005.2,N
1503676615.4,286047004.8,N
1503676635.2,286047003.2,N
1503676655.1,286047001.9,N
1503676656.0,286047001.9,N
1503676675.8,286047002.3,N
1503676695.6,286047001.5,N
1503676715.5,286047005.7,N
1503676735.3,286047003.3,N
1503676755.1,286047000.0,N
1503676775.8,286046998.6,N
1503676795.7,286046999.3,N
